Temperature
20 21 21 20 20 20 20 20 19 20 19 20 20 20 20 19 19 18 17 17 17 16 16 16 16 15 15 15 15 15 15 14 14 14 14 14 14 14 14 14 13 13 13 13
19 20 20 20 20 19 20 20 20 20 19 20 20 19 19 19 18 18 17 17 16 16 16 15 15 15 15 15 15 15 14 14 14 14 14 13 13 13 13 13 13 13 13 13
18 19 19 18 19 19 19 20 19 19 19 19 19 18 18 18 17 17 17 16 16 15 15 14 14 14 14 14 14 14 14 14 13 13 13 13 13 13 13 13 12 12 12 12
18 18 17 18 20 19 19 19 19 18 18 18 18 17 17 17 16 16 16 15 15 15 15 14 14 14 14 14 14 14 14 13 13 13 13 12 12 12 12 12 12 12 12 12
17 17 17 18 18 18 18 17 18 17 17 17 16 17 16 16 15 15 15 15 14 14 14 14 14 14 13 13 13 13 13 13 13 13 12 12 12 12 11 11 11 11 11 11
16 16 16 16 17 17 18 16 16 16 16 16 16 15 15 15 14 14 14 14 14 14 14 13 13 13 13 13 13 13 12 12 12 12 12 12 11 11 11 11 11 10 11 11
15 15 16 16 16 17 15 14 15 15 15 15 15 14 14 14 14 13 13 13 13 13 13 13 13 12 12 12 12 12 12 12 12 12 11 11 11 11 10 10 10 10 10 10
15 15 14 15 16 15 14 15 15 14 14 13 13 13 13 13 13 13 12 12 12 12 12 12 12 12 12 12 12 12 12 11 11 11 11 11 10 10 10 10 10 10 9 9
14 14 14 14 14 14 14 14 14 13 13 13 12 12 12 12 12 12 11 11 11 11 11 11 11 11 11 11 11 11 11 11 11 10 10 10 10 10 9 9 9 9 9 9
14 14 14 14 14 13 13 13 12 12 12 12 11 11 11 11 11 11 10 10 10 11 10 10 10 10 10 10 10 10 10 10 10 10 10 9 9 9 9 9 9 9 9 8
13 13 13 13 12 12 12 12 11 11 11 11 11 10 10 10 10 9 9 10 10 9 10 10 10 10 10 9 9 9 9 9 9 9 9 9 9 9 9 9 8 8 8 8
12 12 12 12 11 11 11 11 11 10 10 10 10 10 10 9 9 9 9 9 9 9 9 9 9 9 9 9 9 9 9 9 9 9 8 8 8 8 8 8 8 8 8 8
12 11 11 11 10 10 10 10 10 10 10 9 9 9 9 8 8 8 8 8 8 8 8 8 8 8 8 8 8 8 8 8 8 8 8 8 8 8 8 8 8 8 8 8
10 10 10 10 9 9 9 9 9 9 9 8 8 8 8 8 7 7 7 7 7 7 7 7 7 7 7 7 7 7 7 7 7 7 7 7 8 8 8 8 8 8 7 7
9 9 9 9 9 8 8 8 8 8 7 7 7 7 7 7 7 7 7 6 6 6 6 6 6 6 6 6 6 6 6 6 7 7 7 7 7 7 7 7 7 7 7 7
9 8 8 8 8 8 7 7 7 7 6 6 6 6 6 6 6 6 6 6 6 6 6 5 5 5 6 6 6 6 6 6 6 6 6 6 6 7 6 6 6 6 6 7
8 8 8 7 7 7 7 6 6 6 6 6 5 5 5 5 5 5 5 5 5 5 5 5 5 5 5 5 5 5 5 6 6 6 6 6 6 6 6 6 6 6 6 6
8 7 7 7 6 6 6 6 5 5 5 5 5 5 5 5 4 4 4 4 5 5 5 4 5 5 5 5 5 5 5 5 5 5 5 5 5 5 5 5 5 5 5 5
7 6 6 6 6 6 5 5 5 5 5 5 4 4 4 4 4 4 4 4 4 4 4 4 4 4 4 4 4 4 4 4 4 4 5 5 5 5 5 5 5 5 5 5
6 6 6 5 5 5 5 5 5 5 4 4 4 4 4 3 3 3 3 3 3 3 3 3 4 4 4 4 4 4 4 4 4 4 4 4 4 4 4 4 4 4 4 4
5 5 5 5 4 4 4 4 4 4 4 4 3 3 3 3 3 3 3 3 3 3 3 3 3 3 3 3 3 3 3 3 3 3 3 3 3 3 3 3 4 4 4 4
5 5 4 4 4 4 4 4 3 3 3 3 3 3 2 2 2 2 2 2 2 2 2 2 3 3 3 3 3 3 3 3 2 2 2 2 2 2 3 3 3 3 3 3
4 4 4 4 4 4 3 3 3 3 3 2 2 2 2 2 2 1 1 2 2 2 2 2 2 2 2 2 2 2 2 2 2 2 2 2 2 2 2 2 2 2 2 2
4 4 4 4 3 3 3 3 3 2 2 2 2 2 1 1 1 1 1 1 1 1 1 1 1 2 2 1 1 1 1 1 1 1 1 1 1 1 2 2 2 2 2 2
3 3 3 3 3 3 3 2 2 2 2 1 1 1 1 1 1 1 1 1 1 1 1 1 1 1 1 1 1 1 1 1 1 1 1 1 1 1 1 1 1 1 1 1
3 3 3 3 3 3 2 2 2 2 1 1 1 1 1 1 0 0 0 0 0 0 0 0 0 0 0 0 -0 -0 -0 0 0 0 0 1 1 1 1 1 1 1 1 1
3 3 3 3 2 2 2 2 1 1 1 1 1 1 0 0 0 0 0 -0 -0 -0 -0 -0 -0 -0 -1 -0 -0 -1 -1 -1 -0 -0 -0 -0 0 0 0 0 0 0 1 1
Wind_Speed
11 10 8 8 10 10 10 10 10 8 7 6 4 1 1 1 1 2 2 2 3 3 2 2 2 1 2 3 3 3 3 2 2 2 2 1 1 1 1 1 2 1 1 1
12 12 10 10 11 11 12 11 11 10 7 5 4 2 2 1 0 1 1 2 2 2 2 2 1 1 1 2 4 3 3 3 2 2 2 1 1 1 2 1 1 1 1 1
11 11 10 11 9 10 10 9 7 7 5 3 2 2 2 1 2 0 1 2 1 1 1 1 1 2 1 1 3 4 4 3 3 3 2 1 1 1 1 2 1 1 1 1
8 9 11 4 3 5 6 4 4 4 4 4 4 2 1 2 3 3 2 1 1 1 1 1 1 1 1 0 2 3 3 3 3 3 3 2 1 2 2 1 1 2 2 2
6 8 9 5 4 5 5 4 4 4 4 5 4 2 2 4 4 4 3 3 2 0 1 1 1 1 2 1 2 3 3 3 3 3 3 3 3 2 2 2 2 2 2 2
7 8 8 4 5 6 4 3 6 5 6 5 4 2 2 4 4 4 4 3 2 1 1 0 0 0 1 2 2 4 3 3 3 3 3 3 3 3 2 2 2 2 2 2
10 9 4 3 5 3 2 2 6 7 6 6 4 3 3 3 3 3 3 3 3 2 1 1 1 1 1 1 1 1 2 1 2 2 3 3 3 3 3 2 2 2 2 2
6 7 4 4 3 3 4 5 6 6 6 6 6 5 5 5 3 3 3 3 2 2 2 2 2 2 2 2 2 1 1 1 2 2 3 2 3 3 3 3 3 3 2 2
3 1 2 4 4 5 6 6 6 6 6 6 5 5 5 5 4 3 3 3 2 2 2 3 2 2 2 2 2 1 1 2 2 2 2 2 3 3 3 3 3 3 2 2
4 3 3 4 4 5 6 6 7 6 6 6 5 5 4 4 4 4 4 3 3 2 2 2 2 2 2 2 2 2 2 2 2 2 2 2 2 3 3 3 3 3 3 2
7 5 4 3 4 6 6 6 6 6 6 5 5 5 4 3 3 3 4 3 3 3 3 3 3 3 2 2 2 2 2 2 1 1 2 2 2 2 3 3 4 4 3 3
5 4 4 4 4 5 6 6 6 6 6 6 5 5 4 4 3 4 4 4 3 3 3 4 4 4 3 2 2 2 2 2 2 2 2 2 2 2 4 5 5 6 5 4
4 4 4 5 5 5 5 6 6 5 5 5 5 5 4 4 4 4 4 5 5 4 4 4 4 4 5 4 3 2 3 2 2 1 2 2 2 3 2 2 3 4 5 5
4 3 3 4 4 5 5 5 5 5 5 5 6 5 5 4 4 4 4 4 4 4 5 5 5 5 5 4 3 3 3 3 2 2 2 2 2 2 2 3 2 2 4 6
3 3 3 4 4 5 5 4 4 4 5 5 6 6 5 5 4 4 4 4 4 4 4 5 5 5 5 4 3 3 3 2 2 2 2 2 2 2 2 2 2 2 2 3
2 2 3 3 3 4 4 4 4 4 5 5 5 6 6 5 5 5 5 4 4 4 4 4 5 5 5 4 3 3 2 4 4 2 2 2 2 2 2 2 3 3 3 3
2 2 2 3 3 3 3 3 4 4 4 5 5 5 6 6 6 6 6 6 5 4 4 4 5 5 5 4 3 3 2 3 4 2 2 2 2 2 2 3 3 3 3 3
1 2 2 3 3 3 4 4 4 4 4 5 5 5 5 5 5 5 6 6 5 5 5 5 6 6 5 4 3 3 3 3 2 2 2 2 3 2 2 3 3 3 2 2
4 4 3 3 3 3 3 4 3 3 4 4 5 5 5 5 5 6 6 6 6 5 6 6 8 6 5 4 4 2 2 3 2 2 2 3 3 2 2 3 3 2 2 2
3 3 3 4 4 3 3 4 4 3 3 3 4 4 5 5 5 5 5 5 4 5 6 7 7 6 4 4 4 2 2 3 3 2 2 2 2 2 2 3 3 2 2 2
3 3 3 3 3 3 3 3 3 3 3 3 4 4 5 5 5 5 5 4 6 7 7 8 6 5 4 5 5 3 2 2 2 2 2 2 3 3 2 3 3 3 3 3
2 2 2 2 2 3 3 3 3 3 3 4 5 5 5 5 5 5 4 4 5 8 6 5 5 6 7 7 3 3 3 3 2 2 2 2 3 3 2 3 3 3 3 3
2 2 2 2 2 2 3 2 3 3 3 4 4 4 4 4 4 4 4 4 4 7 6 5 7 9 9 5 3 3 3 3 3 3 2 2 3 3 3 3 3 3 3 3
2 2 2 2 2 2 2 2 3 3 3 3 3 4 4 3 3 3 3 5 8 8 5 6 9 10 9 5 4 3 3 3 3 3 3 3 3 3 3 3 3 3 3 3
2 2 2 2 2 2 2 2 2 2 2 2 3 4 4 3 3 4 4 5 7 7 5 7 9 10 7 4 4 4 4 3 4 4 3 3 3 3 3 4 4 3 3 3
2 2 1 2 2 2 2 1 2 2 2 2 3 3 3 3 3 3 4 4 5 7 6 5 6 6 5 5 5 4 4 4 4 3 3 4 4 4 4 4 5 4 4 3
2 2 1 1 1 1 1 2 2 2 2 2 3 3 3 3 3 3 4 4 4 4 4 5 4 4 4 5 5 4 4 3 3 3 3 3 3 4 4 5 4 4 4 4
Wind_Direction
281 284 283 273 275 272 268 270 268 278 283 297 309 340 50 70 109 123 120 122 131 132 140 152 149 154 153 159 150 148 143 146 144 136 125 115 137 155 144 164 172 172 188 191
275 274 278 275 268 266 263 267 271 276 279 291 302 329 358 7 10 135 143 157 136 146 164 155 148 176 166 168 158 154 157 163 148 137 118 106 167 189 181 187 178 171 190 182
272 268 275 266 260 260 260 264 272 280 299 336 340 343 348 344 340 349 150 135 123 163 202 188 188 187 205 202 179 174 175 173 164 161 151 176 202 199 199 195 194 201 202 189
271 271 259 265 330 302 282 291 320 330 353 357 351 352 4 41 16 11 18 52 141 212 224 217 197 175 167 245 195 174 179 174 171 173 171 174 200 199 203 209 198 202 210 212
266 265 263 270 317 318 300 297 341 342 353 357 353 0 28 35 22 10 6 352 335 259 244 234 209 203 190 207 208 190 189 178 174 179 185 189 199 215 208 200 205 213 203 205
260 263 268 314 342 327 290 271 18 13 0 353 351 319 324 3 12 2 354 341 344 2 336 289 303 254 229 221 211 195 191 189 181 183 193 198 200 213 214 204 206 207 214 210
261 262 272 340 348 346 295 354 8 10 5 354 344 350 333 340 356 355 351 347 350 357 356 1 9 4 310 288 282 191 157 170 194 197 199 197 200 210 201 195 195 206 219 219
258 258 267 24 6 354 2 5 1 4 9 5 2 8 5 3 7 5 1 354 360 14 10 11 24 33 7 341 352 11 119 171 221 208 206 203 189 203 195 185 194 210 223 227
295 304 43 17 15 5 1 351 356 0 358 359 355 351 356 357 359 360 355 352 7 18 4 355 4 14 342 334 351 346 244 212 222 223 214 198 189 198 203 193 194 206 210 214
293 287 323 339 359 358 355 354 355 353 349 347 341 340 348 349 349 346 345 347 350 356 338 334 339 338 315 321 320 298 259 231 222 222 229 213 197 196 199 199 197 202 204 210
278 289 300 328 356 357 353 351 351 349 347 347 343 337 340 345 349 349 344 345 348 344 341 332 330 333 328 334 331 308 282 248 230 242 238 231 215 203 200 201 193 196 204 207
284 306 309 319 344 349 341 342 350 348 347 350 345 335 341 347 351 351 349 349 340 337 340 336 335 338 339 339 323 301 282 265 237 229 235 227 220 241 223 210 199 198 201 207
315 329 333 338 340 344 341 342 345 346 348 346 345 344 347 353 356 352 351 345 337 336 336 330 333 340 337 337 329 301 288 282 274 255 242 240 232 217 228 241 213 212 217 219
1 352 330 341 338 346 350 347 348 355 1 1 358 356 355 356 351 344 339 335 330 331 332 331 338 339 340 344 331 308 299 289 284 267 258 247 236 224 211 212 222 238 230 221
344 339 331 350 354 357 359 358 0 1 5 5 1 357 355 353 347 341 335 331 329 329 330 331 335 335 334 337 330 311 301 295 285 279 274 262 252 239 228 229 239 239 220 216
324 337 347 351 354 358 1 2 359 354 359 1 359 354 352 351 348 347 344 343 336 326 325 327 326 323 322 324 314 303 294 293 296 280 282 288 275 256 249 246 244 244 235 217
302 303 317 330 346 350 356 359 356 354 359 359 354 353 353 354 354 353 350 347 344 334 333 328 322 323 325 324 315 308 303 292 291 290 278 276 272 262 253 251 249 246 247 233
331 348 350 348 350 352 356 359 359 358 1 358 352 354 354 350 347 345 342 339 343 353 353 347 343 335 330 325 319 310 304 299 295 286 285 280 279 281 275 263 263 265 262 254
36 32 18 7 4 4 0 358 356 359 6 5 356 351 346 344 344 344 344 349 353 352 350 355 348 341 334 329 326 314 302 296 296 286 282 289 287 279 281 278 271 268 259 253
39 37 25 14 10 7 359 356 354 359 5 359 348 344 344 342 342 346 352 355 356 355 352 354 348 344 349 345 338 319 307 306 303 299 291 289 286 279 279 284 281 275 270 263
25 28 21 10 1 355 350 348 351 356 359 356 351 346 345 346 350 355 354 352 355 356 352 350 352 353 354 345 333 330 327 319 316 315 314 307 302 294 288 285 281 280 279 275
357 357 357 354 355 350 350 359 5 4 3 360 354 351 353 354 353 356 357 354 351 348 354 356 357 356 352 346 344 342 333 326 324 324 320 311 304 302 299 299 293 292 293 292
327 334 335 336 337 338 346 3 10 11 6 2 352 351 350 348 351 352 348 351 354 352 359 358 354 351 349 349 351 345 339 339 337 330 325 321 321 320 318 316 316 314 309 308
323 327 332 339 337 328 340 9 16 11 5 0 355 353 350 349 353 358 351 350 354 354 359 356 354 352 350 349 351 353 349 346 343 339 340 341 340 336 332 328 322 317 310 307
327 329 337 339 332 333 350 2 5 5 359 355 358 359 358 359 352 350 356 359 354 352 353 352 351 349 350 350 351 352 353 350 346 346 346 343 337 333 330 324 318 314 311 306
320 313 320 324 330 346 353 354 344 338 338 347 358 358 355 359 1 356 355 355 354 349 349 349 347 346 349 350 348 348 348 347 346 347 343 337 334 329 322 318 316 313 306 302
306 306 318 321 329 346 345 339 332 331 340 351 346 343 347 355 358 354 352 350 348 347 346 344 346 347 344 345 344 343 340 339 340 337 331 327 323 320 315 311 309 311 310 304
Height
1475 1473 1474 1477 1478 1476 1478 1478 1482 1480 1479 1477 1474 1475 1476 1478 1480 1481 1483 1484 1485 1486 1488 1489 1490 1491 1492 1494 1495 1497 1498 1499 1500 1501 1502 1503 1504 1504 1505 1506 1507 1508 1509 1510
1478 1474 1473 1475 1475 1475 1475 1474 1474 1475 1476 1473 1474 1475 1476 1478 1479 1480 1482 1483 1484 1485 1486 1487 1488 1489 1490 1492 1493 1495 1496 1497 1498 1499 1499 1500 1501 1501 1502 1503 1504 1505 1506 1507
1482 1475 1475 1478 1472 1472 1472 1471 1472 1476 1476 1473 1474 1475 1476 1477 1478 1480 1481 1482 1482 1484 1485 1485 1486 1487 1488 1489 1491 1492 1493 1494 1495 1496 1496 1497 1498 1498 1499 1500 1501 1502 1503 1504
1480 1480 1487 1475 1467 1468 1468 1470 1471 1473 1474 1474 1475 1475 1476 1478 1478 1479 1480 1481 1481 1482 1483 1484 1484 1485 1486 1487 1488 1489 1490 1491 1492 1493 1493 1494 1495 1495 1496 1496 1497 1498 1499 1500
1482 1483 1478 1472 1470 1470 1471 1473 1472 1473 1473 1474 1474 1474 1476 1477 1478 1478 1479 1480 1480 1480 1481 1481 1482 1483 1483 1484 1485 1486 1487 1488 1489 1490 1490 1491 1491 1491 1492 1493 1494 1495 1496 1497
1480 1484 1483 1477 1471 1469 1471 1476 1474 1474 1474 1474 1475 1477 1477 1477 1477 1477 1478 1478 1479 1479 1479 1479 1480 1480 1481 1481 1482 1483 1483 1484 1485 1486 1487 1487 1488 1489 1489 1490 1491 1492 1492 1494
1481 1482 1477 1475 1473 1471 1480 1482 1477 1476 1476 1476 1476 1477 1477 1476 1476 1476 1476 1476 1477 1477 1477 1477 1477 1478 1478 1479 1479 1480 1481 1481 1482 1483 1483 1484 1485 1485 1486 1487 1488 1488 1489 1490
1480 1483 1484 1476 1474 1478 1480 1478 1477 1477 1478 1477 1477 1475 1475 1474 1474 1474 1474 1474 1474 1475 1475 1475 1475 1475 1475 1476 1476 1476 1477 1477 1478 1479 1480 1481 1481 1482 1482 1483 1484 1485 1486 1486
1480 1483 1480 1478 1479 1479 1478 1478 1478 1478 1478 1477 1476 1475 1474 1474 1473 1473 1473 1473 1473 1473 1472 1473 1473 1473 1473 1473 1473 1473 1473 1474 1474 1475 1476 1477 1477 1478 1479 1479 1480 1481 1482 1483
1479 1477 1478 1478 1479 1478 1478 1478 1477 1477 1476 1476 1475 1474 1473 1473 1472 1472 1472 1471 1471 1471 1471 1471 1471 1471 1470 1470 1470 1470 1470 1471 1471 1471 1472 1473 1474 1474 1475 1475 1477 1477 1478 1479
1478 1478 1478 1477 1478 1478 1478 1477 1476 1476 1475 1475 1474 1473 1473 1472 1471 1470 1470 1470 1470 1469 1469 1468 1468 1468 1468 1467 1467 1467 1467 1468 1468 1468 1469 1469 1470 1470 1471 1472 1473 1474 1474 1475
1479 1478 1478 1477 1477 1477 1477 1476 1475 1475 1474 1474 1473 1472 1471 1470 1469 1469 1468 1468 1467 1467 1466 1466 1465 1464 1464 1464 1464 1464 1464 1464 1464 1464 1465 1465 1466 1467 1468 1469 1470 1471 1471 1472
1477 1477 1477 1476 1476 1476 1475 1475 1474 1474 1473 1473 1472 1471 1470 1468 1468 1467 1466 1466 1465 1464 1463 1462 1462 1460 1460 1460 1460 1460 1460 1461 1461 1461 1461 1462 1463 1463 1464 1465 1466 1467 1468 1469
1475 1475 1475 1475 1475 1474 1474 1473 1473 1472 1472 1472 1470 1469 1468 1467 1466 1465 1464 1463 1462 1461 1460 1460 1458 1457 1457 1456 1456 1456 1457 1458 1457 1457 1458 1459 1459 1460 1460 1461 1461 1462 1463 1464
1474 1475 1475 1474 1473 1473 1472 1472 1471 1470 1470 1470 1469 1468 1466 1465 1464 1463 1462 1461 1460 1459 1458 1457 1456 1455 1454 1454 1453 1453 1454 1454 1454 1454 1455 1455 1456 1456 1457 1457 1458 1458 1459 1460
1473 1473 1473 1473 1472 1472 1471 1470 1470 1470 1469 1468 1467 1466 1465 1464 1462 1461 1459 1458 1457 1456 1455 1454 1453 1452 1452 1452 1451 1451 1451 1451 1451 1451 1452 1452 1452 1453 1453 1454 1454 1454 1454 1455
1472 1471 1471 1471 1471 1471 1470 1470 1469 1468 1468 1467 1466 1465 1464 1462 1461 1459 1458 1457 1456 1455 1453 1452 1451 1450 1449 1449 1448 1448 1448 1448 1448 1448 1449 1449 1449 1449 1449 1450 1450 1450 1450 1451
1471 1471 1471 1470 1470 1469 1469 1468 1468 1468 1467 1466 1465 1464 1463 1461 1459 1458 1456 1455 1454 1452 1451 1450 1448 1447 1446 1446 1445 1445 1445 1445 1445 1445 1445 1445 1445 1445 1446 1446 1446 1446 1445 1446
1469 1469 1469 1469 1469 1468 1468 1467 1467 1466 1466 1465 1464 1463 1462 1460 1459 1457 1455 1454 1452 1450 1449 1448 1446 1444 1443 1442 1442 1442 1442 1442 1442 1442 1442 1442 1442 1442 1442 1442 1442 1441 1441 1441
1469 1469 1469 1469 1468 1467 1467 1466 1466 1465 1464 1464 1463 1462 1460 1459 1457 1456 1454 1452 1451 1449 1447 1445 1443 1441 1441 1440 1440 1440 1440 1439 1439 1439 1439 1438 1438 1438 1438 1438 1438 1438 1437 1437
1469 1469 1468 1468 1467 1467 1466 1466 1465 1464 1463 1463 1462 1460 1459 1458 1456 1455 1453 1451 1450 1448 1445 1443 1441 1440 1439 1439 1438 1437 1437 1436 1436 1436 1435 1435 1435 1435 1434 1434 1434 1433 1433 1432
1468 1468 1468 1467 1467 1466 1466 1465 1464 1463 1462 1462 1461 1460 1458 1456 1455 1453 1452 1450 1448 1446 1444 1442 1440 1439 1438 1437 1436 1435 1434 1434 1434 1433 1433 1433 1432 1431 1430 1430 1430 1429 1428 1428
1467 1467 1467 1466 1466 1465 1465 1464 1463 1462 1461 1460 1459 1458 1457 1455 1454 1452 1450 1449 1447 1445 1443 1441 1439 1438 1436 1435 1434 1433 1432 1432 1431 1431 1431 1430 1429 1428 1428 1427 1426 1425 1425 1424
1466 1466 1465 1465 1465 1464 1464 1463 1462 1461 1460 1459 1458 1457 1456 1454 1453 1451 1450 1448 1446 1444 1442 1440 1438 1436 1435 1433 1432 1431 1430 1430 1429 1429 1428 1427 1426 1425 1425 1424 1423 1422 1421 1420
1464 1464 1464 1464 1463 1463 1462 1462 1461 1460 1459 1458 1457 1456 1455 1453 1452 1450 1448 1447 1445 1443 1441 1439 1437 1435 1434 1432 1431 1430 1429 1428 1427 1427 1425 1424 1424 1423 1422 1421 1420 1418 1417 1416
1463 1463 1462 1462 1462 1461 1461 1460 1459 1459 1458 1457 1456 1455 1453 1452 1450 1449 1447 1445 1443 1442 1440 1438 1436 1434 1433 1431 1430 1428 1427 1426 1425 1424 1423 1422 1421 1420 1419 1418 1417 1415 1414 1413
1461 1461 1461 1461 1460 1460 1459 1459 1458 1457 1456 1455 1454 1453 1452 1450 1449 1447 1446 1444 1442 1441 1439 1437 1435 1434 1432 1430 1429 1428 1426 1425 1424 1422 1421 1420 1419 1418 1416 1415 1414 1412 1411 1410